Regional Weather Roundup
Issued by NWS

Home | Current Version | Previous Version | Graphics & Text | Print | Product List | Glossary On
Versions: 1 2 3 4 5 6 7 8 9 10 11 12 13 14 15 16 17 18 19 20 21 22 23 24 25 26 27 28 29 30 31 32 33 34 35 36 37 38 39 40 41 42 43 44 45 46 47 48 49 50
696
ASUS44 KJAN 181203
RWRMS

MISSISSIPPI HOURLY WEATHER ROUNDUP
NATIONAL WEATHER SERVICE JACKSON MS
600 AM CST THU DEC 18 2014

NOTE: "FAIR: INDICATES FEW OR NO CLOUDS BELOW 12,000 FEET WITH NO
SIGNIFICANT WEATHER AND/OR OBSTRUCTIONS TO VISIBILITY.

MSZ001>002-007>008-010>013-018>021-025>028-034>036-181300-
NORTHWEST MISSISSIPPI

CITY           SKY/WX    TMP DP  RH WIND       PRES   REMARKS
CLARKSDALE     CLOUDY    39  37  93 SE6       30.22S WCI  35
CLEVELAND      DRIZZLE   41  40  99 NE6       30.20S
GREENWOOD      LGT RAIN  42  38  85 E7        30.20F
6HR MIN TEMP:  42; 6HR MAX TEMP:  44; 6HR PCP:  0.02;

GREENVILLE     CLOUDY    42  39  89 NE6       30.19R
6HR MIN TEMP:  41; 6HR MAX TEMP:  44; 6HR PCP:  0.08;

GRENADA        LGT RAIN  39  36  87 E9        30.21F WCI  33
OLIVE BRANCH   CLOUDY    36  36 100 E3        30.22R
OXFORD         MOCLDY    36  34  93 E6        30.21S WCI  31
TUNICA         CLOUDY    37  36  93 CALM      30.24R
$$

MSZ003>006-009-014>017-022>024-029>033-037>039-181300-
NORTHEAST MISSISSIPPI

CITY           SKY/WX    TMP DP  RH WIND       PRES   REMARKS
COLUMBUS AFB   CLOUDY    41  35  79 NE2       30.23F
6HR MIN TEMP:  37; 6HR MAX TEMP:  41;

CORINTH        CLOUDY    39  36  87 CALM      30.21R
GOLDN TRIANGLE CLOUDY    41  36  81 E3        30.22S
STARKVILLE     CLOUDY    41  36  81 NE6       30.22F
TUPELO         CLOUDY    41  34  76 E3        30.21F
6HR MIN TEMP:  40; 6HR MAX TEMP:  41; 6HR PCP: TRACE;

$$

MSZ040-058-181300-
CENTRAL MISSISSIPPI

CITY           SKY/WX    TMP DP  RH WIND       PRES   REMARKS
JACKSON INTL   CLOUDY    46  39  76 CALM      30.21R
6HR MIN TEMP:  41; 6HR MAX TEMP:  46;

JACKSON HAWKNS CLOUDY    46  38  73 E6        30.20R
6HR MIN TEMP:  42; 6HR MAX TEMP:  47;

MERIDIAN KEY   CLOUDY    41  38  89 E5        30.21F
6HR MIN TEMP:  34; 6HR MAX TEMP:  41;

MERIDIAN NAS   MOCLDY    39  36  89 NE5       30.23S
6HR MIN TEMP:  36; 6HR MAX TEMP:  39;

RAYMOND        CLOUDY    46  41  81 E5        30.20R
VICKSBURG      CLOUDY    47  40  76 E7        30.18F
6HR MIN TEMP:  44; 6HR MAX TEMP:  47; 6HR PCP: TRACE;

$$

MSZ059>079-181300-
SOUTH MISSISSIPPI

CITY           SKY/WX    TMP DP  RH WIND       PRES   REMARKS
HATTIESBURG    CLOUDY    44  41  89 CALM      30.21R
6HR MIN TEMP:  39; 6HR MAX TEMP:  44;

MCCOMB         CLOUDY    47  41  80 CALM      30.17R
6HR MIN TEMP:  42; 6HR MAX TEMP:  47;

NATCHEZ        CLOUDY    48  41  76 E3        30.16F
6HR MIN TEMP:  45; 6HR MAX TEMP:  48;

PINE BELT      CLOUDY    43  37  81 NE6       30.21R
6HR MIN TEMP:  37; 6HR MAX TEMP:  45;

$$

MSZ080>082-181300-
COASTAL MISSISSIPPI

CITY           SKY/WX    TMP DP  RH WIND       PRES   REMARKS
BILOXI         PTCLDY    45  41  87 NE6       30.19R
6HR MIN TEMP:  44; 6HR MAX TEMP:  51;

PASCAGOULA     CLEAR     40  38  93 NE5       30.19S
6HR MIN TEMP:  37; 6HR MAX TEMP:  42;

GULFPORT       PTCLDY    45  40  82 E3        30.18R
6HR MIN TEMP:  44; 6HR MAX TEMP:  48;

$$



USA.gov is the U.S. government's official web portal to all federal, state and local government web resources and services.